Location: Lake Runnemede Observatory
(43.4843°N, 72.3851°W)
Time: 23:12:57
(UTC-04:00)

Amateur Radio Satellites - All Passes

Search period start: 21 October 2014 22:42
Search period end: 22 October 2014 22:42
Location: Lake Runnemede Observatory, 43.4843°N, 72.3851°W

Satellite Date Start Highest point End Downlink Frequencies (MHz)
Time Altitude Azimuth
FUNcube-1 21 Oct 22:57:06 23:01:22 37° 263° (W) 23:05:36 145.950 - 145.970 MHz USB
HO-68 21 Oct 22:57:17 23:00:33 13° 273° (W) 23:03:50 435.675 MHz FM
SO-50 21 Oct 23:00:23 23:05:09 58° 240° (WSW) 23:09:56 436.795 FM
UOSAT-12 21 Oct 23:02:58 23:06:45 23° 41° (NE) 23:10:30 437.025 FM, 437.400 FM
Oscar 11 21 Oct 23:11:20 23:12:53 12° 271° (W) 23:14:26 145.825 FM, Beacon 2401.500 USB
RS-15 21 Oct 23:26:48 23:37:49 90° 123° (ESE) 23:48:49 29.354 - 29.394 USB, Beacon 29.352 USB
MaSat-1 21 Oct 23:35:30 23:37:50 15° 106° (ESE) 23:40:04 437.345 MHz
KITSAT 1 21 Oct 23:36:29 23:43:07 29° 254° (WSW) 23:49:44 435.175 FM
ZACube-1 21 Oct 23:50:59 23:52:31 11° 271° (W) 23:54:03 437.345 MHz
UOSAT-12 22 Oct 00:42:37 00:47:16 58° 240° (WSW) 00:51:49 437.025 FM, 437.400 FM
JAS-1B 22 Oct 00:57:14 01:00:12 13° 90° (E) 01:03:22 435.800 - 435.900 CW/SSB
MaSat-1 22 Oct 01:09:10 01:13:17 53° 299° (WNW) 01:17:02 437.345 MHz
Oscar 19 22 Oct 01:11:47 01:14:36 15° 90° (E) 01:17:25 437.125 CW, 437.150 USB
RS-15 22 Oct 01:42:02 01:51:43 35° 330° (NNW) 02:01:31 29.354 - 29.394 USB, Beacon 29.352 USB
Oscar 16 22 Oct 01:55:29 02:00:17 39° 98° (E) 02:05:02 437.025 USB, Beacon 2401.1428
Uribyol 2 22 Oct 02:09:37 02:13:43 23° 93° (E) 02:17:46 436.500 FM
ITAMSAT 1 22 Oct 02:14:43 02:18:55 24° 94° (E) 02:23:05 435.822 SSB
Gurwin Techsat 1B 22 Oct 02:16:36 02:19:04 13° 88° (E) 02:21:32 435.225 FM
AO-Echo 22 Oct 02:16:55 02:21:43 34° 96° (E) 02:26:30 ?
TMSAT-1 22 Oct 02:30:04 02:32:27 13° 88° (E) 02:34:50 436.925 FM
JAS-1B 22 Oct 02:45:01 02:51:28 80° 104° (ESE) 02:59:11 435.800 - 435.900 CW/SSB
Oscar 19 22 Oct 02:49:21 02:54:27 70° 287° (WNW) 02:59:32 437.125 CW, 437.150 USB
AO-27 22 Oct 02:58:47 03:04:00 61° 101° (ESE) 03:09:09 436.795 MHz FM
Sapphire 22 Oct 03:34:01 03:37:21 17° 104° (ESE) 03:40:42 437.095 MHz 1200 baud AX-25 AFSK
Oscar 16 22 Oct 03:35:10 03:39:28 28° 295° (WNW) 03:43:45 437.025 USB, Beacon 2401.1428
Uribyol 2 22 Oct 03:48:25 03:53:24 47° 290° (WNW) 03:58:21 436.500 FM
ITAMSAT 1 22 Oct 03:53:37 03:58:36 45° 291° (WNW) 04:03:32 435.822 SSB
Gurwin Techsat 1B 22 Oct 03:54:20 03:59:41 81° 285° (WNW) 04:04:59 435.225 FM
PCSat 22 Oct 03:55:28 04:00:00 28° 109° (ESE) 04:04:35 145.825 MHz
AO-Echo 22 Oct 03:55:42 04:00:25 34° 293° (WNW) 04:05:09 ?
RS-15 22 Oct 04:00:06 04:08:34 24° 5° (N) 04:17:11 29.354 - 29.394 USB, Beacon 29.352 USB
Uosat F 22 Oct 04:00:51 04:03:07 13° 89° (E) 04:05:23 435.120 FM
TMSAT-1 22 Oct 04:07:41 04:13:01 82° 285° (WNW) 04:18:19 436.925 FM
JAS-2 22 Oct 04:28:00 04:30:00 11° 82° (E) 04:32:01 435.800 - 435.900 CW/SSB, 435.910 FM
AO-7 22 Oct 04:31:33 04:39:15 40° 98° (E) 04:46:55 29.400 - 29.500 MHz
OPAL 22 Oct 04:35:46 04:40:47 53° 69° (ENE) 04:45:45 ?
JAS-1B 22 Oct 04:37:14 04:41:38 20° 300° (WNW) 04:46:29 435.800 - 435.900 CW/SSB
AO-27 22 Oct 04:39:23 04:43:02 19° 299° (WNW) 04:46:39 436.795 MHz FM
Sapphire 22 Oct 05:14:45 05:20:08 72° 302° (WNW) 05:25:35 437.095 MHz 1200 baud AX-25 AFSK
Gurwin Techsat 1B 22 Oct 05:36:42 05:38:47 12° 304° (WNW) 05:40:52 435.225 FM
Uosat F 22 Oct 05:37:25 05:42:29 78° 286° (WNW) 05:47:31 435.120 FM
PCSat 22 Oct 05:38:01 05:43:12 45° 307° (NW) 05:48:25 145.825 MHz
Hamsat 22 Oct 05:39:30 05:42:06 16° 91° (E) 05:44:43 145.90 MHz
TMSAT-1 22 Oct 05:49:57 05:52:05 13° 304° (WNW) 05:54:13 436.925 FM
JAS-2 22 Oct 06:08:44 06:16:21 61° 100° (E) 06:24:06 435.800 - 435.900 CW/SSB, 435.910 FM
RS-15 22 Oct 06:14:25 06:24:51 44° 38° (NE) 06:35:37 29.354 - 29.394 USB, Beacon 29.352 USB
STRAND 1 22 Oct 06:15:17 06:20:09 46° 69° (ENE) 06:25:03 ?
OPAL 22 Oct 06:16:10 06:19:56 20° 265° (W) 06:23:42 ?
AO-7 22 Oct 06:24:15 06:32:10 50° 298° (WNW) 06:40:04 29.400 - 29.500 MHz
Sapphire 22 Oct 07:01:22 07:04:33 16° 323° (NW) 07:07:46 437.095 MHz 1200 baud AX-25 AFSK
Hamsat 22 Oct 07:14:17 07:18:18 45° 288° (WNW) 07:22:18 145.90 MHz
Uosat F 22 Oct 07:19:00 07:20:24 11° 304° (NW) 07:21:49 435.120 FM
SO-67 22 Oct 07:26:25 07:29:29 29° 96° (E) 07:32:32 435.3500 MHz FM
PCSat 22 Oct 07:26:32 07:28:04 11° 330° (NNW) 07:29:36 145.825 MHz
JAS-2 22 Oct 07:54:21 08:00:56 33° 298° (WNW) 08:07:40 435.800 - 435.900 CW/SSB, 435.910 FM
STRAND 1 22 Oct 07:55:32 07:59:33 23° 267° (W) 08:03:36 ?
Saudisat 1A 22 Oct 08:16:44 08:20:57 48° 119° (ESE) 08:25:12 436.775 MHz
AO-7 22 Oct 08:19:48 08:23:00 13° 320° (NW) 08:26:13 29.400 - 29.500 MHz
RS-15 22 Oct 08:26:56 08:37:57 69° 243° (WSW) 08:49:28 29.354 - 29.394 USB, Beacon 29.352 USB
HO-68 22 Oct 08:32:25 08:37:16 19° 90° (E) 08:42:05 435.675 MHz FM
SO-67 22 Oct 08:59:59 09:02:15 17° 293° (WNW) 09:04:31 435.3500 MHz FM
MaSat-1 22 Oct 09:19:38 09:21:53 22° 54° (NE) 09:23:57 437.345 MHz
Oscar 11 22 Oct 09:20:53 09:22:05 11° 89° (E) 09:23:16 145.825 FM, Beacon 2401.500 USB
Saudisat 1A 22 Oct 09:57:12 10:00:45 24° 318° (NW) 10:04:20 436.775 MHz
ZACube-1 22 Oct 10:01:11 10:03:07 13° 89° (E) 10:05:02 437.345 MHz
UKube-1 22 Oct 10:10:19 10:14:29 41° 99° (E) 10:18:36 145.840 MHz, 145.915 MHz
HO-68 22 Oct 10:18:32 10:25:46 83° 288° (WNW) 10:32:57 435.675 MHz FM
RS-15 22 Oct 10:42:34 10:48:11 15° 264° (W) 10:53:55 29.354 - 29.394 USB, Beacon 29.352 USB
FUNcube-1 22 Oct 10:45:01 10:49:02 38° 97° (E) 10:52:57 145.950 - 145.970 MHz USB
Oscar 11 22 Oct 10:54:26 10:58:44 70° 285° (WNW) 11:03:00 145.825 FM, Beacon 2401.500 USB
MaSat-1 22 Oct 10:56:30 10:57:16 11° 256° (WSW) 10:58:01 437.345 MHz
ZACube-1 22 Oct 11:35:42 11:39:57 58° 287° (WNW) 11:44:04 437.345 MHz
UKube-1 22 Oct 11:47:10 11:50:23 20° 296° (WNW) 11:53:36 145.840 MHz, 145.915 MHz
JAS-1B 22 Oct 11:47:46 11:49:08 11° 53° (NE) 11:50:29 435.800 - 435.900 CW/SSB
HO-68 22 Oct 12:07:51 12:12:25 18° 308° (NW) 12:17:00 435.675 MHz FM
KITSAT 1 22 Oct 12:10:06 12:17:24 39° 110° (ESE) 12:24:42 435.175 FM
Sapphire 22 Oct 12:18:55 12:23:07 22° 43° (NE) 12:27:18 437.095 MHz 1200 baud AX-25 AFSK
FUNcube-1 22 Oct 12:22:00 12:25:10 20° 295° (WNW) 12:28:16 145.950 - 145.970 MHz USB
Oscar 19 22 Oct 12:29:20 12:33:31 26° 64° (ENE) 12:37:42 437.125 CW, 437.150 USB
PCSat 22 Oct 12:41:28 12:46:21 32° 48° (NE) 12:51:11 145.825 MHz
AO-27 22 Oct 12:41:34 12:44:30 15° 58° (ENE) 12:47:26 436.795 MHz FM
Oscar 16 22 Oct 13:13:28 13:18:34 64° 72° (ENE) 13:23:41 437.025 USB, Beacon 2401.1428
ISS 22 Oct 13:14:25 13:17:00 21° 135° (SE) 13:19:36 145.800 FM
SO-50 22 Oct 13:16:35 13:20:38 35° 116° (ESE) 13:24:49 436.795 FM
Uribyol 2 22 Oct 13:28:23 13:33:12 39° 68° (ENE) 13:38:03 436.500 FM
AO-Echo 22 Oct 13:31:04 13:35:41 46° 70° (ENE) 13:40:29 ?
JAS-1B 22 Oct 13:32:50 13:38:52 74° 73° (ENE) 13:44:32 435.800 - 435.900 CW/SSB
ITAMSAT 1 22 Oct 13:33:39 13:38:30 41° 68° (ENE) 13:43:23 435.822 SSB
Gurwin Techsat 1B 22 Oct 13:38:09 13:42:23 25° 64° (ENE) 13:46:39 435.225 FM
AO-7 22 Oct 13:44:18 13:48:32 15° 43° (NE) 13:52:46 29.400 - 29.500 MHz
TMSAT-1 22 Oct 13:51:14 13:55:26 25° 63° (ENE) 13:59:39 436.925 FM
Sapphire 22 Oct 14:01:40 14:07:05 71° 243° (WSW) 14:12:28 437.095 MHz 1200 baud AX-25 AFSK
KITSAT 1 22 Oct 14:04:42 14:12:34 54° 310° (NW) 14:20:29 435.175 FM
Oscar 19 22 Oct 14:07:44 14:12:38 43° 262° (W) 14:17:32 437.125 CW, 437.150 USB
AO-27 22 Oct 14:18:08 14:23:20 80° 256° (WSW) 14:28:36 436.795 MHz FM
PCSat 22 Oct 14:24:46 14:29:52 43° 247° (WSW) 14:34:57 145.825 MHz
ISS 22 Oct 14:50:11 14:53:28 56° 332° (NNW) 14:56:46 145.800 FM
UOSAT-12 22 Oct 14:54:58 14:59:04 32° 115° (ESE) 15:03:15 437.025 FM, 437.400 FM
Oscar 16 22 Oct 14:55:09 14:58:22 16° 269° (W) 15:01:35 437.025 USB, Beacon 2401.1428
SO-50 22 Oct 14:57:08 15:01:12 32° 315° (NW) 15:05:23 436.795 FM
Oscar 10/S400 22 Oct 14:59:43 15:16:56 43° 157° (SSE) 15:48:39 145.825 - 145.975 CW/USB, Beacon 145.810 USB
Saudisat 1A 22 Oct 15:04:31 15:06:00 11° 31° (NNE) 15:07:30 436.775 MHz
Uribyol 2 22 Oct 15:08:20 15:12:45 28° 265° (W) 15:17:13 436.500 FM
AO-Echo 22 Oct 15:11:03 15:14:43 21° 268° (W) 15:18:30 ?
ITAMSAT 1 22 Oct 15:13:47 15:18:07 26° 266° (W) 15:22:29 435.822 SSB
Uosat F 22 Oct 15:14:39 15:18:27 22° 63° (ENE) 15:22:16 435.120 FM
Gurwin Techsat 1B 22 Oct 15:16:59 15:22:04 46° 261° (W) 15:27:12 435.225 FM
JAS-1B 22 Oct 15:27:03 15:30:11 14° 270° (W) 15:33:14 435.800 - 435.900 CW/SSB
TMSAT-1 22 Oct 15:29:57 15:35:03 48° 261° (W) 15:40:12 436.925 FM
AO-7 22 Oct 15:31:35 15:39:39 60° 65° (ENE) 15:47:44 29.400 - 29.500 MHz
KITSAT 1 22 Oct 16:04:32 16:10:02 19° 336° (NNW) 16:15:33 435.175 FM
JAS-2 22 Oct 16:23:21 16:28:18 28° 60° (ENE) 16:33:47 435.800 - 435.900 CW/SSB, 435.910 FM
ISS 22 Oct 16:28:02 16:30:41 21° 352° (N) 16:33:20 145.800 FM
Hamsat 22 Oct 16:34:41 16:36:59 15° 63° (ENE) 16:39:16 145.90 MHz
UOSAT-12 22 Oct 16:34:52 16:39:10 35° 314° (NW) 16:43:32 437.025 FM, 437.400 FM
Saudisat 1A 22 Oct 16:42:11 16:46:33 56° 52° (NE) 16:50:53 436.775 MHz
OPAL 22 Oct 16:47:14 16:48:37 11° 90° (E) 16:49:59 ?
Uosat F 22 Oct 16:52:02 16:56:53 49° 260° (W) 17:01:48 435.120 FM
AO-7 22 Oct 17:25:37 17:32:49 33° 264° (W) 17:40:05 29.400 - 29.500 MHz
SO-67 22 Oct 18:01:33 18:03:12 13° 65° (ENE) 18:04:51 435.3500 MHz FM
KITSAT 1 22 Oct 18:05:20 18:09:20 14° 7° (N) 18:13:20 435.175 FM
ISS 22 Oct 18:05:25 18:08:10 23° 12° (NNE) 18:10:56 145.800 FM
JAS-2 22 Oct 18:07:18 18:12:56 52° 262° (W) 18:19:23 435.800 - 435.900 CW/SSB, 435.910 FM
Hamsat 22 Oct 18:08:21 18:12:29 56° 260° (W) 18:16:38 145.90 MHz
Saudisat 1A 22 Oct 18:22:47 18:25:42 17° 249° (WSW) 18:28:36 436.775 MHz
OPAL 22 Oct 18:23:09 18:28:10 86° 287° (WNW) 18:33:06 ?
STRAND 1 22 Oct 18:26:18 18:28:55 14° 89° (E) 18:31:31 ?
HO-68 22 Oct 19:03:33 19:08:09 19° 52° (NE) 19:12:46 435.675 MHz FM
SO-67 22 Oct 19:32:36 19:35:50 39° 262° (W) 19:39:06 435.3500 MHz FM
ISS 22 Oct 19:41:56 19:45:17 75° 31° (NNE) 19:48:37 145.800 FM
KITSAT 1 22 Oct 20:01:15 20:08:02 28° 36° (NE) 20:14:47 435.175 FM
STRAND 1 22 Oct 20:03:30 20:08:40 75° 286° (WNW) 20:13:47 ?
OPAL 22 Oct 20:04:14 20:06:16 13° 305° (NW) 20:08:17 ?
SO-50 22 Oct 20:07:53 20:09:28 11° 29° (NNE) 20:11:04 436.795 FM
Oscar 11 22 Oct 20:17:35 20:19:02 12° 60° (ENE) 20:20:29 145.825 FM, Beacon 2401.500 USB
RS-15 22 Oct 20:45:48 20:51:38 16° 97° (E) 20:57:24 29.354 - 29.394 USB, Beacon 29.352 USB
HO-68 22 Oct 20:47:40 20:54:50 84° 72° (ENE) 21:02:03 435.675 MHz FM
ZACube-1 22 Oct 20:58:46 21:01:19 15° 62° (ENE) 21:03:51 437.345 MHz
UKube-1 22 Oct 21:06:47 21:10:53 42° 70° (ENE) 21:15:00 145.840 MHz, 145.915 MHz
ISS 22 Oct 21:19:36 21:21:36 15° 228° (SW) 21:23:36 145.800 FM
FUNcube-1 22 Oct 21:42:05 21:46:20 38° 70° (ENE) 21:50:31 145.950 - 145.970 MHz USB
UOSAT-12 22 Oct 21:45:35 21:46:06 10° 26° (NNE) 21:46:36 437.025 FM, 437.400 FM
STRAND 1 22 Oct 21:45:36 21:46:57 11° 304° (NW) 21:48:18 ?
SO-50 22 Oct 21:46:32 21:51:13 47° 50° (NE) 21:55:55 436.795 FM
Oscar 11 22 Oct 21:50:16 21:54:36 78° 257° (WSW) 21:58:57 145.825 FM, Beacon 2401.500 USB
KITSAT 1 22 Oct 21:56:21 22:04:29 88° 239° (WSW) 22:12:34 435.175 FM
ZACube-1 22 Oct 22:32:38 22:37:12 65° 259° (WSW) 22:41:45 437.345 MHz
